Regional Weather Roundup
Issued by NWS

Home | Current Version | Previous Version | Text Only | Print | Product List | Glossary Off
Versions: 1 2 3 4 5 6 7 8 9 10 11 12 13 14 15 16 17 18 19 20 21 22 23 24 25 26 27 28 29 30 31 32 33 34 35 36 37 38 39 40 41 42 43 44 45 46 47 48 49 50

091
ASUS43 KBIS 280002
RWRND

NORTH DAKOTA REGIONAL WEATHER ROUNDUP
NATIONAL WEATHER SERVICE BISMARCK ND
700 PM CDT WED JUL 27 2016

NOTE: "FAIR" INDICATES FEW OR NO CLOUDS BELOW 12,000 FEET WITH NO
SIGNIFICANT WEATHER AND/OR OBSTRUCTIONS TO VISIBILITY.


NDZ001>003-009>011-017-280100-
NORTHWEST NORTH DAKOTA

CITY           SKY/WX    TMP DP  RH WIND       PRES   REMARKS
WILLISTON      PTSUNNY   68  61  78 E9        30.13F
6HR MIN TEMP:  65; 6HR MAX TEMP:  74; 6HR PCP:  0.03;

MINOT          CLOUDY    75  59  57 NE8       30.11S
MINOT AFB      PTSUNNY   73  57  56 NE7       30.11S
$$

NDZ018>021-031>035-040>046-280100-
SOUTHWEST NORTH DAKOTA

CITY           SKY/WX    TMP DP  RH WIND       PRES   REMARKS
BISMARCK       PTSUNNY   74  61  63 E5        30.09R
6HR MIN TEMP:  74; 6HR MAX TEMP:  78;

DICKINSON      CLOUDY    73  58  59 NE7       30.10F
GARRISON         N/A     72  59  63 E9        30.11R
6HR MIN TEMP:  72; 6HR MAX TEMP:  77;

HETTINGER ARPT MOSUNNY   75  59  57 NE8       30.13F
$$

NDZ004>008-012>016-024-026-027-054-280100-
NORTHEAST NORTH DAKOTA

CITY           SKY/WX    TMP DP  RH WIND       PRES   REMARKS
GRAND FORKS    MOSUNNY   75  59  57 N13       30.03S
GRND FRKS AFB  SUNNY     74  58  55 N14       30.05S
DEVILS LAKE    PTSUNNY   71  53  52 N14       30.11S
$$

NDZ022-023-025-028>030-036>039-047>053-280100-
SOUTHEAST NORTH DAKOTA

CITY           SKY/WX    TMP DP  RH WIND       PRES   REMARKS
FARGO          MOSUNNY   77  58  51 N13       30.01S
6HR MIN TEMP:  77; 6HR MAX TEMP:  79;

JAMESTOWN      MOSUNNY   73  59  61 N7        30.08R
$$





USA.gov is the U.S. government's official web portal to all federal, state and local government web resources and services.